STARLINK-32441

Last updated on Thu Nov 21 2024 00:02:04 GMT+0000 (Coordinated Universal Time)

1 61668U 24193H 24325.58335648 -.00010376 00000+0 -24971-3 0 9998 2 61668 53.1602 137.9148 0001244 94.3459 216.0905 15.39628154 5107
UTC large
Height (km)
Speed (km/s)
/
Latitude / Longitude
Inclination (degrees)
Orbital Period (minutes)
Azimuth
Elevation
Range (km)
Doppler Factor

Next 0 passes for location: London (51.5072 / 0.1276)

Sorry there are no passes over London.